Location: Manitoulin Island
(45.7026°N, 82.0372°W)
Time: 16:46:02
(UTC-04:00)

ISS - Visible Passes

Search period start: 26 May 2024 00:00
Search period end: 05 June 2024 00:00
Orbit: 411 x 419 km, 51.6° (Epoch: 26 May)

Date Brightness Start Highest point End Pass type
(mag) Time Alt. Az. Time Alt. Az. Time Alt. Az.
26 May -3.5 21:51:55 10° WNW 21:55:16 61° SSW 21:58:22 11° SE visible
27 May -1.5 22:40:34 10° W 22:42:41 16° SW 22:44:12 12° SSW visible
28 May -2.1 21:51:05 10° W 21:53:55 25° SW 21:56:44 10° SSE visible
30 May -1.0 21:51:28 10° WSW 21:52:12 11° SW 21:52:58 10° SW visible
